Location: Huppendorf
(49.9333°N, 11.1500°E)
Time: 09:07:14
(UTC+00:00)

Cosmos 1943 Rocket - Pass Details

Date: 27 February 2020
Orbit: 813 x 842 km, 71.0° (Epoch: 03 April)

Event Time Altitude Azimuth Distance (km) Brightness Sun altitude
Rises 17:53:04 0° 228° (SW) 3,356 6.2 -10.4°
Reaches altitude 10° 17:55:37 10° 235° (SW) 2,422 5.5 -10.8°
Maximum altitude 18:00:54 45° 308° (NW) 1,117 3.3 -11.6°
Drops below altitude 10° 18:06:12 10° 20° (NNE) 2,420 4.4 -12.5°
Sets 18:08:45 0° 27° (NNE) 3,353 5.1 -12.9°
